Location: İstanbul
(41.0082°N, 28.9784°E)
Time: 04:52:36
(UTC+03:00)

CAS-6 - Pass Details

Date: 27 April 2024
Orbit: 607 x 628 km, 97.8° (Epoch: 24 May)

Event Time Altitude Azimuth Distance (km) Brightness Sun altitude
Exits shadow 22:20:12 20° 53° (NE) 1,425 ? -23.4°
Drops below altitude 10° 22:22:44 10° 18° (NNE) 1,984 ? -23.7°
Sets 22:25:19 0° 3° (N) 2,890 ? -24.0°
